�N����,����,����,����,����,�C��,���x,�~����,�S�V����,�ő�u�ԕ���,,,,,
,,,,,,,,,����,����,����,�N��,,
yyyy/mm/dd,hh:mm:ss,(16),16����,m/s,��,%,mm,KW/�u,(16),16����,m/s,Time,,
2019/2/1,1:00:00,13,���k��,1.6,-16.7,73.7,0,0,13,���k��,3.9,20,,
2019/2/1,2:00:00,13,���k��,3.2,-16.8,74.1,0,0,14,�k��,5,13,,
2019/2/1,3:00:00,13,���k��,3.2,-19.5,73.2,0,0,13,���k��,4.3,12,,
2019/2/1,4:00:00,13,���k��,2.8,-18.6,75.8,0,0,13,���k��,4.2,0,,
2019/2/1,5:00:00,13,���k��,2.8,-21.2,75.4,0,0.01,14,�k��,4,18,,
2019/2/1,6:00:00,13,���k��,2.6,-19.3,79.4,0,0,13,���k��,4.3,20,,
2019/2/1,7:00:00,14,�k��,1.5,-19.6,79.6,0,0.01,13,���k��,4.1,10,,
2019/2/1,8:00:00,13,���k��,1.9,-18.1,73.5,0,0.15,14,�k��,4.2,30,,
2019/2/1,9:00:00,13,���k��,1.6,-10.4,52.2,0,0.35,14,�k��,3.2,45,,
2019/2/1,10:00:00,12,��,7.4,-6.3,32.8,0,0.51,12,��,12,49,,
2019/2/1,11:00:00,13,���k��,7.8,-6.1,32.7,0,0.61,12,��,12,24,,
2019/2/1,12:00:00,13,���k��,7.6,-6,31.6,0,0.62,12,��,12.8,11,,
2019/2/1,13:00:00,13,���k��,7.5,-6.6,40.2,0,0.34,13,���k��,11.9,57,,
2019/2/1,14:00:00,13,���k��,6.8,-7.4,39.9,0,0.2,13,���k��,11,56,,
2019/2/1,15:00:00,13,���k��,6.6,-7.8,36.7,0,0.14,13,���k��,12.3,29,,
2019/2/1,16:00:00,13,���k��,4.7,-7.9,38.8,0,0.15,13,���k��,10,9,,
2019/2/1,17:00:00,13,���k��,3.9,-8.8,41.7,0,0.02,13,���k��,7.7,18,,
2019/2/1,18:00:00,13,���k��,4.2,-9.7,45.9,0,0,13,���k��,7,15,,
2019/2/1,19:00:00,12,��,4.4,-9.4,46.3,0,0,13,���k��,6.3,0,,
2019/2/1,20:00:00,12,��,4,-11.6,46.3,0,0,12,��,5.6,2,,
2019/2/1,21:00:00,5,���쓌,0.8,-14.1,46.8,0,0,12,��,4.8,3,,
2019/2/1,22:00:00,13,���k��,2.6,-18.1,57.5,0,0,12,��,3.3,56,,
2019/2/1,23:00:00,13,���k��,1.5,-18.9,63,0,0,12,��,4.8,23,,
2019/2/1,0:00:00,11,���쐼,2.6,-17.7,68,0,0,12,��,4.2,25,,
2019/2/2,1:00:00,10,�쐼,2.6,-17.5,62.2,0,0,10,�쐼,3.6,55,,
2019/2/2,2:00:00,13,���k��,1.3,-17.9,66.3,0,0,11,���쐼,4,11,,
2019/2/2,3:00:00,11,���쐼,2.4,-14.8,70.2,0,0,13,���k��,4.8,24,,
2019/2/2,4:00:00,12,��,4.8,-7.7,72.3,0,0,12,��,6.4,57,,
2019/2/2,5:00:00,12,��,5.2,-6.7,46.8,0,0,12,��,9.1,11,,
2019/2/2,6:00:00,13,���k��,3.5,-6.8,47.2,0,0,11,���쐼,9.1,9,,
2019/2/2,7:00:00,2,�k��,1.6,-12.2,53.3,0,0.01,13,���k��,6.1,3,,
2019/2/2,8:00:00,10,�쐼,0.6,-11.8,53.4,0,0.13,14,�k��,2.7,22,,
2019/2/2,9:00:00,15,�k�k��,2.1,-5,35.9,0,0.32,16,�k,5.1,56,,
2019/2/2,10:00:00,14,�k��,4.2,-4.3,31.9,0,0.49,14,�k��,9,16,,
2019/2/2,11:00:00,15,�k�k��,5.7,-3.7,27.8,0,0.58,14,�k��,11.4,53,,
2019/2/2,12:00:00,14,�k��,5.8,-3.9,30,0,0.64,15,�k�k��,12.2,10,,
2019/2/2,13:00:00,15,�k�k��,5.5,-3.7,30.2,0,0.62,15,�k�k��,10.2,39,,
2019/2/2,14:00:00,14,�k��,5.1,-3.7,29.1,0,0.54,15,�k�k��,11.8,18,,
2019/2/2,15:00:00,15,�k�k��,4.5,-3.9,33.2,0,0.4,14,�k��,10.2,17,,
2019/2/2,16:00:00,15,�k�k��,3.5,-4.6,34.2,0,0.21,14,�k��,8.8,0,,
2019/2/2,17:00:00,14,�k��,2.3,-5.8,39.6,0,0.04,15,�k�k��,8.7,2,,
2019/2/2,18:00:00,13,���k��,1.8,-8,46.6,0,0,15,�k�k��,3.6,51,,
2019/2/2,19:00:00,14,�k��,3.4,-8.3,51,0,0,15,�k�k��,5.4,27,,
2019/2/2,20:00:00,13,���k��,2.4,-13.7,51.9,0,0,14,�k��,3.9,1,,
2019/2/2,21:00:00,13,���k��,2.3,-15.4,64.2,0,0,13,���k��,2.9,51,,
2019/2/2,22:00:00,13,���k��,2.4,-15.5,70.1,0,0,12,��,3.2,54,,
2019/2/2,23:00:00,13,���k��,1.9,-15.1,75.2,0,0,13,���k��,3.2,23,,
2019/2/2,0:00:00,13,���k��,2.5,-17.1,69.9,0,0,13,���k��,4.1,1,,
2019/2/3,1:00:00,13,���k��,3,-17.5,77.6,0,0,12,��,5.1,42,,
2019/2/3,2:00:00,12,��,2.1,-16.9,76.7,0,0,13,���k��,4.4,5,,
2019/2/3,3:00:00,13,���k��,2.5,-16.6,79.6,0,0,13,���k��,4.2,27,,
2019/2/3,4:00:00,13,���k��,2.4,-16.7,80.1,0,0,13,���k��,4.1,53,,
2019/2/3,5:00:00,13,���k��,1.2,-17.2,77.4,0,0.01,13,���k��,3.9,34,,
2019/2/3,6:00:00,13,���k��,2.1,-15.3,81.7,0,0,13,���k��,3.7,29,,
2019/2/3,7:00:00,14,�k��,3.1,-14,80.6,0,0.01,14,�k��,4.2,55,,
2019/2/3,8:00:00,14,�k��,2.3,-13.2,78.8,0,0.1,14,�k��,4.7,13,,
2019/2/3,9:00:00,14,�k��,2.3,-8.7,69.3,0,0.31,13,���k��,3.5,36,,
2019/2/3,10:00:00,13,���k��,1.4,-4.8,48.6,0,0.49,14,�k��,2.9,0,,
2019/2/3,11:00:00,3,���k��,0.9,1.5,29,0,0.59,2,�k��,2.2,44,,
2019/2/3,12:00:00,5,���쓌,2.3,0.6,26.2,0,0.61,4,��,3.5,17,,
2019/2/3,13:00:00,4,��,2.5,0.5,35.4,0,0.58,4,��,4.2,41,,
2019/2/3,14:00:00,5,���쓌,2.8,0.1,50.1,0,0.36,5,���쓌,4.5,3,,
2019/2/3,15:00:00,3,���k��,1.4,-1,48.8,0,0.23,4,��,3.6,6,,
2019/2/3,16:00:00,2,�k��,0.8,-1,55.2,0,0.09,2,�k��,2.3,2,,
2019/2/3,17:00:00,16,�É�,0.1,-3.3,63.4,0,0.02,2,�k��,2.1,44,,
2019/2/3,18:00:00,16,�k,1.3,-2.7,67.5,0,0,16,�k,2.2,37,,
2019/2/3,19:00:00,13,���k��,1,-4.4,69.9,0,0,13,���k��,1.7,28,,
2019/2/3,20:00:00,13,���k��,1.2,-3.8,72.4,0,0,13,���k��,1.8,38,,
2019/2/3,21:00:00,13,���k��,1.1,-4.4,73.2,0,0,12,��,1.9,48,,
2019/2/3,22:00:00,16,�É�,0,-4.3,75.5,0,0,1,�k�k��,2.1,50,,
2019/2/3,23:00:00,12,��,0.7,-3.8,81,0,0,1,�k�k��,3.4,31,,
2019/2/3,0:00:00,2,�k��,1.4,-2.2,84.3,0,0,1,�k�k��,2.5,33,,
2019/2/4,1:00:00,1,�k�k��,1.6,-2.1,84.9,0,0,1,�k�k��,2.9,11,,
2019/2/4,2:00:00,2,�k��,1.9,-1.7,90.9,0,0,2,�k��,3.3,14,,
2019/2/4,3:00:00,15,�k�k��,0.8,-1.9,92.6,0,0,2,�k��,3,7,,
2019/2/4,4:00:00,14,�k��,1.6,-1.9,92.8,0,0,13,���k��,2.3,59,,
2019/2/4,5:00:00,14,�k��,1.9,-2.6,92.1,0,0,15,�k�k��,4.4,22,,
2019/2/4,6:00:00,15,�k�k��,3.4,-3.1,92.9,0.5,0,15,�k�k��,5.6,59,,
2019/2/4,7:00:00,14,�k��,4.6,-3.6,94,0,0.01,14,�k��,7.4,50,,
2019/2/4,8:00:00,14,�k��,4.4,-3.5,95.4,0,0.03,14,�k��,8.1,42,,
2019/2/4,9:00:00,14,�k��,5.1,-2.9,95.9,0,0.08,15,�k�k��,8.7,59,,
2019/2/4,10:00:00,14,�k��,3.6,-1,93.2,0,0.3,14,�k��,9.6,11,,
2019/2/4,11:00:00,14,�k��,4.1,0.4,62.5,0,0.58,14,�k��,7,47,,
2019/2/4,12:00:00,14,�k��,5.4,1.5,64.1,0,0.64,16,�k,8.5,56,,
2019/2/4,13:00:00,12,��,2.5,3.4,54.9,2.5,0.55,15,�k�k��,9.8,9,,
2019/2/4,14:00:00,13,���k��,10.4,3.9,47.4,3.5,0.41,13,���k��,16.6,43,,
2019/2/4,15:00:00,13,���k��,12,1.6,59.2,1,0.22,12,��,17.4,54,,
2019/2/4,16:00:00,13,���k��,11.6,0.6,43.9,0.5,0.14,12,��,19.5,24,,
2019/2/4,17:00:00,13,���k��,7.6,-2.1,37.8,0,0.03,13,���k��,18,6,,
2019/2/4,18:00:00,12,��,6.1,-2.5,40.7,0,0,14,�k��,12.3,47,,
2019/2/4,19:00:00,12,��,4.3,-4.2,44.4,0,0,12,��,10.6,0,,
2019/2/4,20:00:00,12,��,6.4,-4.7,36.9,0,0,13,���k��,10,49,,
2019/2/4,21:00:00,12,��,6,-5.8,40.3,0,0,12,��,12.5,29,,
2019/2/4,22:00:00,12,��,4.4,-7,42.1,0,0,12,��,8.3,31,,
2019/2/4,23:00:00,12,��,3.7,-7,43.6,0,0,13,���k��,7.9,9,,
2019/2/4,0:00:00,11,���쐼,2.5,-10.2,43.8,0,0,13,���k��,7,20,,
2019/2/5,1:00:00,12,��,4.2,-7.9,49.3,0,0,12,��,7,47,,
2019/2/5,2:00:00,12,��,3.7,-8.8,43.9,0,0,12,��,8,22,,
2019/2/5,3:00:00,12,��,4,-9,45,0,0,12,��,6.2,57,,
2019/2/5,4:00:00,13,���k��,3.6,-11.4,44.6,0,0,13,���k��,5.3,34,,
2019/2/5,5:00:00,14,�k��,0.9,-17.1,49,0,0,14,�k��,3.1,2,,
2019/2/5,6:00:00,13,���k��,1.6,-18.7,64,0,0.01,13,���k��,3.1,49,,
2019/2/5,7:00:00,13,���k��,2.1,-19.4,72.6,0,0.02,13,���k��,3.7,25,,
2019/2/5,8:00:00,13,���k��,2.3,-16.8,67.7,0,0.16,13,���k��,4,53,,
2019/2/5,9:00:00,14,�k��,0.7,-12.6,51,0,0.36,12,��,3.3,26,,
2019/2/5,10:00:00,13,���k��,2.3,-5.7,29.7,0,0.53,14,�k��,4.1,37,,
2019/2/5,11:00:00,13,���k��,5,-4.1,28.1,0,0.62,14,�k��,7.7,36,,
2019/2/5,12:00:00,13,���k��,4.8,-3.3,27.5,0,0.64,13,���k��,9.8,56,,
2019/2/5,13:00:00,12,��,5.4,-2.7,29.3,0,0.59,13,���k��,11.4,14,,
2019/2/5,14:00:00,12,��,4.2,-2.9,33.1,0,0.52,13,���k��,8.4,21,,
2019/2/5,15:00:00,12,��,3.6,-3,34.7,0,0.35,13,���k��,7.1,20,,
2019/2/5,16:00:00,11,���쐼,2.4,-4.1,42.2,0,0.16,11,���쐼,5.8,7,,
2019/2/5,17:00:00,5,���쓌,0.8,-6.3,49.6,0,0.02,11,���쐼,2.3,2,,
2019/2/5,18:00:00,10,�쐼,1.8,-3.8,64,0,0,10,�쐼,3.5,47,,
2019/2/5,19:00:00,10,�쐼,1.9,-4.4,77.2,0,0,10,�쐼,4.1,33,,
2019/2/5,20:00:00,7,��쓌,1.1,-4.5,85.2,0,0,9,��쐼,2.8,7,,
2019/2/5,21:00:00,13,���k��,1.1,-5.7,87.9,0,0,8,��,3,32,,
2019/2/5,22:00:00,14,�k��,2.8,-6.6,90.7,0,0,15,�k�k��,4.8,33,,
2019/2/5,23:00:00,13,���k��,2.4,-10.4,89.4,0,0,14,�k��,4.2,1,,
2019/2/5,0:00:00,13,���k��,1.3,-9.8,90.9,0,0,14,�k��,3.3,6,,
2019/2/6,1:00:00,13,���k��,2,-8.8,92.8,0,0,12,��,3.6,52,,
2019/2/6,2:00:00,12,��,1.5,-10.7,90.2,0,0,13,���k��,3.4,20,,
2019/2/6,3:00:00,13,���k��,1.3,-13.4,86.8,0,0,11,���쐼,3.7,21,,
2019/2/6,4:00:00,13,���k��,1.6,-13.2,88.8,0,0,13,���k��,3,57,,
2019/2/6,5:00:00,13,���k��,0.8,-13,90.9,0,0,13,���k��,3,8,,
2019/2/6,6:00:00,14,�k��,1.2,-12.9,91,0,0,13,���k��,2.6,1,,
2019/2/6,7:00:00,13,���k��,1,-13.6,92.1,0,0.01,11,���쐼,2.5,23,,
2019/2/6,8:00:00,14,�k��,1.8,-9.4,93.1,0,0.07,14,�k��,2.6,33,,
2019/2/6,9:00:00,14,�k��,2,-5.7,87.3,0,0.19,14,�k��,2.9,54,,
2019/2/6,10:00:00,13,���k��,1.3,-4,66.3,0,0.26,14,�k��,3.2,6,,
2019/2/6,11:00:00,6,�쓌,0.7,-2.3,56.9,0,0.24,13,���k��,2.4,8,,
2019/2/6,12:00:00,-2.7,#N/A,56.6,0.5,0.29,,,,,,,,
2019/2/6,13:00:00,-2.9,#N/A,59.6,0.5,0.29,,,,,,,,
2019/2/6,14:00:00,16,�k,0.6,-2.6,56.2,0,0.24,9,��쐼,3.9,8,,
2019/2/6,15:00:00,3,���k��,3.8,-3.3,74.1,0.5,0.21,3,���k��,6.2,52,,
2019/2/6,16:00:00,3,���k��,3.3,-3.2,82.3,0,0.1,2,�k��,5.7,3,,
2019/2/6,17:00:00,2,�k��,2.5,-3.3,82.4,0,0.02,2,�k��,5.4,0,,
2019/2/6,18:00:00,2,�k��,1.7,-3.4,82.7,0,0,2,�k��,3.6,1,,
2019/2/6,19:00:00,2,�k��,1.5,-3.5,84,0,0,2,�k��,3.1,26,,
2019/2/6,20:00:00,16,�k,1,-3.7,84.5,0,0,1,�k�k��,4,11,,
2019/2/6,21:00:00,14,�k��,1.2,-4,86.7,0,0,16,�k,2.9,14,,
2019/2/6,22:00:00,16,�k,0.7,-4,89,0,0,16,�k,2.2,49,,
2019/2/6,23:00:00,14,�k��,1.1,-4,89.8,0,0,15,�k�k��,2.3,13,,
2019/2/6,0:00:00,16,�É�,0.1,-4.3,90,0,0,8,��,4.4,53,,
2019/2/7,1:00:00,2,�k��,1.1,-3.9,90.2,0,0,16,�k,10.3,31,,
2019/2/7,2:00:00,15,�k�k��,2,-4.2,90.2,0,0,15,�k�k��,4,42,,
2019/2/7,3:00:00,13,���k��,0.8,-4.5,90.9,0,0,16,�k,2.6,12,,
2019/2/7,4:00:00,15,�k�k��,1.7,-4.6,91.2,0,0,13,���k��,3.8,38,,
2019/2/7,5:00:00,14,�k��,2.1,-5.3,90.8,0,0,14,�k��,4,42,,
2019/2/7,6:00:00,15,�k�k��,1.7,-5.6,91.1,0,0,16,�k,3.9,27,,
2019/2/7,7:00:00,14,�k��,0.9,-5.9,91.1,0,0.01,15,�k�k��,2.9,1,,
2019/2/7,8:00:00,14,�k��,0.8,-5.8,89.5,0,0.06,14,�k��,2.5,32,,
2019/2/7,9:00:00,13,���k��,2.1,-5.1,75.1,0,0.17,14,�k��,2.7,59,,
2019/2/7,10:00:00,-4.6,#N/A,70.8,0,0.16,,,,,,,,
2019/2/7,11:00:00,-4.7,#N/A,69.5,0,0.14,,,,,,,,
2019/2/7,12:00:00,16,�k,0.9,-4.4,67.3,0,0.14,1,�k�k��,2.1,45,,
2019/2/7,13:00:00,3,���k��,2.2,-4.8,72.6,1.5,0.13,2,�k��,3.4,59,,
2019/2/7,14:00:00,1,�k�k��,2,-5.1,79.5,0.5,0.1,2,�k��,3.7,10,,
2019/2/7,15:00:00,16,�k,1,-5.1,79.7,0.5,0.06,2,�k��,2.7,25,,
2019/2/7,16:00:00,14,�k��,1,-5.1,80.5,0,0.04,15,�k�k��,1.9,35,,
2019/2/7,17:00:00,15,�k�k��,1.4,-5.1,84.3,0,0.01,14,�k��,3.5,25,,
2019/2/7,18:00:00,14,�k��,2.1,-5.4,85.8,0,0,1,�k�k��,16.8,26,,
2019/2/7,19:00:00,15,�k�k��,1.4,-5.6,87,0,0,15,�k�k��,4.2,5,,
2019/2/7,20:00:00,11,���쐼,0.5,-5.5,87.5,0,0,15,�k�k��,3.4,7,,
2019/2/7,21:00:00,11,���쐼,1.4,-11.4,81.8,0,0,11,���쐼,3.8,40,,
2019/2/7,22:00:00,13,���k��,2,-9.1,84,0,0,11,���쐼,4.7,53,,
2019/2/7,23:00:00,10,�쐼,3.9,-6.2,92.5,0,0,12,��,7.1,35,,
2019/2/7,0:00:00,13,���k��,2.9,-12,77.4,0,0,14,�k��,5.4,5,,
2019/2/8,1:00:00,16,�k,1,-11.6,87.3,0,0,15,�k�k��,5.4,30,,
2019/2/8,2:00:00,15,�k�k��,3.7,-9.9,86,0,0,15,�k�k��,7.2,54,,
2019/2/8,3:00:00,14,�k��,2.3,-11,73.7,0,0,13,���k��,6.8,30,,
2019/2/8,4:00:00,15,�k�k��,2,-12.1,65.8,0,0,14,�k��,7.1,17,,
2019/2/8,5:00:00,14,�k��,2.3,-12.2,51.1,0,0,13,���k��,5.9,25,,
2019/2/8,6:00:00,12,��,1.6,-20.2,50.9,0,0,13,���k��,7,1,,
2019/2/8,7:00:00,11,���쐼,2.5,-15,64.4,0,0.02,12,��,3.1,59,,
2019/2/8,8:00:00,12,��,2.7,-13.3,65,0,0.15,12,��,4.3,55,,
2019/2/8,9:00:00,12,��,2.5,-10.3,36.1,0,0.38,11,���쐼,4.6,51,,
2019/2/8,10:00:00,15,�k�k��,3.4,-10,29.8,0,0.42,15,�k�k��,6.8,55,,
2019/2/8,11:00:00,13,���k��,4,-10.3,32.4,0,0.33,14,�k��,8.2,28,,
2019/2/8,12:00:00,13,���k��,5.2,-10.2,31.8,0,0.36,14,�k��,10.4,51,,
2019/2/8,13:00:00,13,���k��,5,-10.1,26.8,0,0.65,12,��,11.4,13,,
2019/2/8,14:00:00,13,���k��,6.1,-10.4,28.9,0,0.63,13,���k��,12.1,42,,
2019/2/8,15:00:00,13,���k��,5.3,-11,27.8,0,0.45,13,���k��,11.3,18,,
2019/2/8,16:00:00,14,�k��,4.9,-11.2,29.1,0,0.16,13,���k��,11.2,14,,
2019/2/8,17:00:00,14,�k��,2.4,-13.1,30.4,0,0.04,13,���k��,6.8,0,,
2019/2/8,18:00:00,12,��,1,-17.7,32.7,0,0,14,�k��,4.2,22,,
2019/2/8,19:00:00,11,���쐼,0.9,-22.7,40.1,0,0,10,�쐼,12.7,6,,
2019/2/8,20:00:00,13,���k��,1.1,-27.2,49.4,0,0,2,�k��,2.3,40,,
2019/2/8,21:00:00,13,���k��,2.1,-26.1,58.4,0,0,12,��,2.6,55,,
2019/2/8,22:00:00,13,���k��,3.2,-25.7,71.5,0,0,12,��,4,55,,
2019/2/8,23:00:00,13,���k��,2.9,-27.5,65.5,0,0,14,�k��,4.9,8,,
2019/2/8,0:00:00,14,�k��,2.3,-26.2,72.7,0,0,13,���k��,3.9,3,,
2019/2/9,1:00:00,13,���k��,4.2,-26.7,74.6,0,0,12,��,5.1,59,,
2019/2/9,2:00:00,13,���k��,2.2,-26.6,74.2,0,0,13,���k��,4.9,0,,
2019/2/9,3:00:00,13,���k��,2.5,-25.4,77.1,0,0,14,�k��,4.8,48,,
2019/2/9,4:00:00,13,���k��,3,-25.3,76,0,0,14,�k��,3.8,52,,
2019/2/9,5:00:00,14,�k��,2.3,-25.3,76.1,0,0.01,14,�k��,4.2,3,,
2019/2/9,6:00:00,13,���k��,2.2,-25.7,76,0,0.01,13,���k��,3.7,59,,
2019/2/9,7:00:00,13,���k��,3.1,-25.1,78.7,0,0.02,13,���k��,4.5,1,,
2019/2/9,8:00:00,13,���k��,0.8,-20.6,75.2,0,0.18,13,���k��,4.7,3,,
2019/2/9,9:00:00,14,�k��,2.7,-15.1,55.4,0,0.29,14,�k��,5.1,55,,
2019/2/9,10:00:00,13,���k��,0.7,-12,40.6,0,0.52,14,�k��,4.4,4,,
2019/2/9,11:00:00,3,���k��,1.8,-7.9,42.8,0,0.64,3,���k��,3.6,24,,
2019/2/9,12:00:00,3,���k��,2.5,-8.1,54.9,0,0.66,3,���k��,4.2,16,,
2019/2/9,13:00:00,4,��,2.4,-6.5,49.6,0,0.65,4,��,4.3,56,,
2019/2/9,14:00:00,3,���k��,3.1,-7.2,55.9,0,0.57,3,���k��,4.4,59,,
2019/2/9,15:00:00,2,�k��,2.9,-6.8,53.8,0,0.42,2,�k��,4.6,29,,
2019/2/9,16:00:00,2,�k��,2.4,-7.1,54.1,0,0.22,2,�k��,4.2,31,,
2019/2/9,17:00:00,16,�k,1.5,-10.4,56.8,0,0.04,1,�k�k��,3.4,7,,
2019/2/9,18:00:00,14,�k��,2.5,-10.5,64.4,0,0,14,�k��,3.9,53,,
2019/2/9,19:00:00,14,�k��,2.7,-12,59.5,0,0,15,�k�k��,5,43,,
2019/2/9,20:00:00,14,�k��,1.4,-13.7,64.6,0,0,14,�k��,4.9,9,,
2019/2/9,21:00:00,13,���k��,2.7,-17,62,0,0,14,�k��,5.1,29,,
2019/2/9,22:00:00,14,�k��,2.9,-13.7,74.4,0,0,14,�k��,4.7,53,,
2019/2/9,23:00:00,14,�k��,3.1,-15.5,75,0,0,14,�k��,5.1,59,,
2019/2/9,0:00:00,14,�k��,3.2,-15.1,73.7,0,0,14,�k��,5.5,16,,
2019/2/10,1:00:00,14,�k��,1.8,-18.8,69.6,0,0,14,�k��,4.1,10,,
2019/2/10,2:00:00,14,�k��,3.1,-15.5,77.5,0,0,14,�k��,5.1,57,,
2019/2/10,3:00:00,14,�k��,1,-20.5,72.9,0,0,15,�k�k��,5.1,5,,
2019/2/10,4:00:00,14,�k��,3.5,-17.5,82.1,0,0,14,�k��,5.6,39,,
2019/2/10,5:00:00,14,�k��,4,-16,80.9,0,0,14,�k��,7,33,,
2019/2/10,6:00:00,14,�k��,4.5,-13.7,71.6,0,0.01,15,�k�k��,7.4,31,,
2019/2/10,7:00:00,14,�k��,4.4,-14.5,71.1,0,0.03,14,�k��,7.1,6,,
2019/2/10,8:00:00,14,�k��,2.8,-12.6,60.8,0,0.19,14,�k��,5.9,23,,
2019/2/10,9:00:00,14,�k��,2.8,-10,46.5,0,0.4,15,�k�k��,5.6,49,,
2019/2/10,10:00:00,14,�k��,2,-7.4,33.2,0,0.56,15,�k�k��,5.1,6,,
2019/2/10,11:00:00,13,���k��,0.5,-6.1,29,0,0.65,13,���k��,3.3,27,,
2019/2/10,12:00:00,4,��,1.7,-5.1,17.4,0,0.7,3,���k��,2.6,59,,
2019/2/10,13:00:00,8,��,2.5,-5.9,25.2,0,0.67,7,��쓌,4.2,45,,
2019/2/10,14:00:00,7,��쓌,2.4,-5.6,33.6,0.5,0.59,6,�쓌,4.9,4,,
2019/2/10,15:00:00,8,��,2.9,-5.6,39.7,0,0.45,8,��,4.7,50,,
2019/2/10,16:00:00,9,��쐼,1.8,-5.7,41.3,0,0.26,8,��,4,1,,
2019/2/10,17:00:00,11,���쐼,0.8,-9.2,47.7,0,0.06,9,��쐼,2.7,0,,
2019/2/10,18:00:00,13,���k��,1.8,-12.4,58.6,0,0,12,��,3.2,48,,
2019/2/10,19:00:00,14,�k��,1.7,-15.8,68.1,0,0,13,���k��,4.8,23,,
2019/2/10,20:00:00,15,�k�k��,0.9,-18,72.5,0,0,2,�k��,3.6,41,,
2019/2/10,21:00:00,13,���k��,2,-20.5,75.5,0,0,12,��,3,56,,
2019/2/10,22:00:00,13,���k��,2.2,-18.8,81.5,0,0,12,��,3.8,4,,
2019/2/10,23:00:00,13,���k��,2.6,-18.2,85,0,0,13,���k��,3.9,9,,
2019/2/10,0:00:00,14,�k��,2.5,-18,83.7,0,0,14,�k��,3.7,13,,
2019/2/11,1:00:00,13,���k��,3.1,-17.6,83.8,0,0,14,�k��,4.2,12,,
2019/2/11,2:00:00,13,���k��,2.3,-19,81,0,0,13,���k��,5.6,39,,
2019/2/11,3:00:00,13,���k��,2.5,-21.6,80.1,0,0,12,��,4.7,58,,
2019/2/11,4:00:00,11,���쐼,1.8,-21.3,81.8,0,0,12,��,5.2,5,,
2019/2/11,5:00:00,13,���k��,2.6,-20.9,83.3,0,0,12,��,4.5,47,,
2019/2/11,6:00:00,13,���k��,3,-21.1,82.6,0,0.01,13,���k��,4.8,58,,
2019/2/11,7:00:00,13,���k��,1.9,-19.8,83.8,0,0.02,12,��,4.1,13,,
2019/2/11,8:00:00,14,�k��,3.2,-17.4,83.3,0,0.13,14,�k��,4.9,6,,
2019/2/11,9:00:00,13,���k��,1.3,-13.4,62.7,0,0.4,13,���k��,3.3,2,,
2019/2/11,10:00:00,16,�É�,0,-8,34.4,0,0.56,12,��,2.6,6,,
2019/2/11,11:00:00,3,���k��,0.5,-3.5,17.4,0,0.66,2,�k��,2.2,30,,
2019/2/11,12:00:00,4,��,2,-2,25.8,0,0.7,5,���쓌,3.3,26,,
2019/2/11,13:00:00,6,�쓌,2.2,-3.1,31.7,0,0.68,5,���쓌,3.6,40,,
2019/2/11,14:00:00,4,��,2.2,-2.5,26,0,0.6,5,���쓌,3.6,34,,
2019/2/11,15:00:00,4,��,3.1,-3.4,37.4,0,0.46,3,���k��,4.8,14,,
2019/2/11,16:00:00,3,���k��,2.5,-4.8,45.1,0,0.26,4,��,4.7,24,,
2019/2/11,17:00:00,2,�k��,1.6,-5.8,50.4,0,0.06,3,���k��,3.3,4,,
2019/2/11,18:00:00,13,���k��,1.3,-13.3,50.7,0,0,1,�k�k��,2,0,,
2019/2/11,19:00:00,13,���k��,2,-15.3,61.6,0,0,13,���k��,2.8,13,,
2019/2/11,20:00:00,13,���k��,0.8,-13.9,73.3,0,0,13,���k��,2.2,44,,
2019/2/11,21:00:00,13,���k��,2.1,-11.6,77.3,0,0,12,��,3.3,59,,
2019/2/11,22:00:00,13,���k��,1.9,-11.3,75.8,0,0,13,���k��,3.4,1,,
2019/2/11,23:00:00,13,���k��,2,-9.3,67.5,0,0,14,�k��,4.9,24,,
2019/2/11,0:00:00,13,���k��,1.3,-11,65.4,0,0,12,��,4.5,27,,
2019/2/12,1:00:00,13,���k��,1.7,-12,69.4,0,0,14,�k��,3.6,33,,
2019/2/12,2:00:00,14,�k��,1.8,-11.5,69.7,0,0,14,�k��,4.3,19,,
2019/2/12,3:00:00,14,�k��,2.1,-9.7,68.2,0,0,14,�k��,3.8,44,,
2019/2/12,4:00:00,14,�k��,3.1,-10.2,63.9,0,0,14,�k��,5.2,34,,
2019/2/12,5:00:00,14,�k��,2.1,-11.1,66.1,0,0,14,�k��,5,33,,
2019/2/12,6:00:00,14,�k��,2.3,-14.8,66.4,0,0,14,�k��,4.8,9,,
2019/2/12,7:00:00,14,�k��,1.8,-16.1,72.9,0,0.01,13,���k��,3.6,43,,
2019/2/12,8:00:00,14,�k��,2.3,-10.7,61.3,0,0.18,14,�k��,3.9,32,,
2019/2/12,9:00:00,13,���k��,1.5,-9.8,45.4,0,0.38,15,�k�k��,3.6,6,,
2019/2/12,10:00:00,14,�k��,1.5,-4.1,34.2,0,0.55,13,���k��,3.5,59,,
2019/2/12,11:00:00,13,���k��,2,-3.1,27.5,0,0.64,13,���k��,4.3,48,,
2019/2/12,12:00:00,11,���쐼,1.5,-2.5,20.8,0,0.68,14,�k��,3,7,,
2019/2/12,13:00:00,10,�쐼,2.8,-3.2,28.6,0.5,0.46,8,��,4.6,29,,
2019/2/12,14:00:00,7,��쓌,2.1,-2.8,35.6,0,0.54,9,��쐼,4.4,10,,
2019/2/12,15:00:00,15,�k�k��,4,-4.2,45.2,0,0.24,16,�k,8.2,36,,
2019/2/12,16:00:00,15,�k�k��,4.4,-5.1,44.9,0,0.25,14,�k��,8.5,7,,
2019/2/12,17:00:00,14,�k��,3.7,-6.8,49.9,0,0.04,15,�k�k��,8.7,4,,
2019/2/12,18:00:00,15,�k�k��,3.1,-7.2,55.5,0,0,14,�k��,6.5,19,,
2019/2/12,19:00:00,13,���k��,1.8,-9.4,58.9,0,0,14,�k��,5.6,30,,
2019/2/12,20:00:00,14,�k��,1.1,-14.5,59.7,0,0,13,���k��,3.2,10,,
2019/2/12,21:00:00,12,��,2,-15.9,68.4,0,0,12,��,3.7,36,,
2019/2/12,22:00:00,13,���k��,2.6,-17.2,79.1,0,0,13,���k��,3.9,17,,
2019/2/12,23:00:00,13,���k��,2.3,-20,81.5,0,0,13,���k��,3.3,50,,
2019/2/12,0:00:00,14,�k��,2.5,-18.1,84.9,0,0,14,�k��,3.7,56,,
2019/2/13,1:00:00,11,���쐼,0.6,-18.3,85.9,0,0,13,���k��,4.2,16,,
2019/2/13,2:00:00,13,���k��,1.4,-21.7,83.1,0,0,13,���k��,3.5,42,,
2019/2/13,3:00:00,13,���k��,2.6,-19.8,85.8,0,0,13,���k��,3.8,10,,
2019/2/13,4:00:00,13,���k��,2.5,-19.8,86.5,0,0,13,���k��,3.7,6,,
2019/2/13,5:00:00,13,���k��,2.2,-18.9,85.5,0,0,14,�k��,4,29,,
2019/2/13,6:00:00,14,�k��,3.1,-18.7,82.8,0,0,14,�k��,4.7,59,,
2019/2/13,7:00:00,13,���k��,3.3,-18.9,83.6,0,0.03,13,���k��,5.4,42,,
2019/2/13,8:00:00,14,�k��,3.1,-16.6,79.2,0,0.2,13,���k��,4.5,10,,
2019/2/13,9:00:00,12,��,0.7,-11.5,64.1,0,0.41,14,�k��,3.5,6,,
2019/2/13,10:00:00,12,��,1.1,-6.2,32.3,0,0.57,14,�k��,2.3,14,,
2019/2/13,11:00:00,10,�쐼,2.1,-4.6,16.5,0,0.66,8,��,3.6,47,,
2019/2/13,12:00:00,7,��쓌,2.4,-3.6,20.2,0,0.71,8,��,4.6,40,,
2019/2/13,13:00:00,6,�쓌,2.7,-4,28.1,0,0.66,4,��,4.5,27,,
2019/2/13,14:00:00,5,���쓌,2.2,-2.8,29.8,0,0.63,5,���쓌,4.8,46,,
2019/2/13,15:00:00,6,�쓌,2.3,-4.5,37.4,0,0.37,6,�쓌,4.6,15,,
2019/2/13,16:00:00,8,��,1.2,-4.7,41,0,0.16,6,�쓌,3.6,2,,
2019/2/13,17:00:00,9,��쐼,1.3,-6.6,42.3,0,0.08,10,�쐼,1.9,59,,
2019/2/13,18:00:00,14,�k��,1.1,-12.1,49.9,0,0,10,�쐼,2.2,11,,
2019/2/13,19:00:00,14,�k��,1.8,-12.6,61.4,0,0,15,�k�k��,8,39,,
2019/2/13,20:00:00,14,�k��,2.6,-14.4,62.9,0,0,14,�k��,3.7,49,,
2019/2/13,21:00:00,16,�k,0.8,-15.2,65,0,0,12,��,4.2,42,,
2019/2/13,22:00:00,13,���k��,2.9,-15.8,72.9,0,0,14,�k��,3.5,54,,
2019/2/13,23:00:00,2,�k��,0.7,-16.7,71.5,0,0,14,�k��,3.7,1,,
2019/2/13,0:00:00,14,�k��,3.4,-18,77.7,0,0,14,�k��,4.9,54,,
2019/2/14,1:00:00,14,�k��,3.7,-13.1,79.2,0,0,14,�k��,5.3,40,,
2019/2/14,2:00:00,14,�k��,2.3,-18.8,70,0,0,14,�k��,4.7,1,,
2019/2/14,3:00:00,1,�k�k��,1.6,-18.7,75.8,0,0,14,�k��,4.4,40,,
2019/2/14,4:00:00,14,�k��,3,-17.6,78.5,0,0,14,�k��,4.3,59,,
2019/2/14,5:00:00,14,�k��,0.6,-19.4,80.7,0,0,14,�k��,4.4,7,,
2019/2/14,6:00:00,12,��,0.4,-20.7,82.5,0,0.01,12,��,2.3,59,,
2019/2/14,7:00:00,12,��,1.8,-19.5,85.6,0,0.04,12,��,3.2,40,,
2019/2/14,8:00:00,12,��,1.2,-17.1,80.4,0,0.21,12,��,3.7,4,,
2019/2/14,9:00:00,12,��,1.1,-11.2,55.8,0,0.41,12,��,2.4,29,,
2019/2/14,10:00:00,4,��,0.5,-5.7,35.4,0,0.58,14,�k��,3.2,30,,
2019/2/14,11:00:00,7,��쓌,1.8,-6.5,30.5,0,0.67,6,�쓌,3.4,39,,
2019/2/14,12:00:00,7,��쓌,2.2,-6,33.2,0,0.72,7,��쓌,3.5,45,,
2019/2/14,13:00:00,8,��,2.9,-5.7,38.5,0,0.69,8,��,5.1,39,,
2019/2/14,14:00:00,8,��,2.1,-5.1,42.2,0,0.6,7,��쓌,4.5,36,,
2019/2/14,15:00:00,8,��,1.6,-4.8,36.2,0,0.47,9,��쐼,3.8,6,,
2019/2/14,16:00:00,8,��,1.2,-5.6,38.6,0,0.16,7,��쓌,2.9,3,,
2019/2/14,17:00:00,11,���쐼,0.3,-9.1,47,0,0.05,8,��,2.5,12,,
2019/2/14,18:00:00,16,�k,1.2,-11.3,53.5,0,0,7,��쓌,2.5,9,,
2019/2/14,19:00:00,14,�k��,2.3,-11,68.7,0,0,14,�k��,3.2,59,,
2019/2/14,20:00:00,13,���k��,2.7,-11.9,67.5,0,0,14,�k��,4.1,5,,
2019/2/14,21:00:00,15,�k�k��,1.1,-14.6,68.9,0,0,14,�k��,3.4,16,,
2019/2/14,22:00:00,13,���k��,2.5,-16.4,72.9,0,0,14,�k��,3.7,43,,
2019/2/14,23:00:00,15,�k�k��,2.5,-8.7,81,0,0,16,�k,5.1,34,,
2019/2/14,0:00:00,14,�k��,2.7,-8.9,73.1,0,0,14,�k��,4.2,40,,
2019/2/15,1:00:00,14,�k��,2.3,-11.2,69.1,0,0,14,�k��,3.8,9,,
2019/2/15,2:00:00,10,�쐼,1.1,-17.5,71.9,0,0,14,�k��,2.8,12,,
2019/2/15,3:00:00,13,���k��,1.8,-18.7,79.4,0,0,12,��,3.1,28,,
2019/2/15,4:00:00,13,���k��,1.4,-19.5,81.8,0,0,12,��,2.7,26,,
2019/2/15,5:00:00,13,���k��,2.5,-18.4,86.2,0,0.01,13,���k��,3.5,58,,
2019/2/15,6:00:00,13,���k��,1.5,-19,85.2,0,0.01,13,���k��,3.8,56,,
2019/2/15,7:00:00,14,�k��,0.6,-17.6,87.5,0,0.04,13,���k��,3.9,6,,
2019/2/15,8:00:00,13,���k��,1.1,-16.2,86,0,0.21,12,��,3,49,,
2019/2/15,9:00:00,15,�k�k��,0.7,-11.7,57.9,0,0.42,13,���k��,17.8,8,,
2019/2/15,10:00:00,-4.5,#N/A,32.6,0,0.57,,,,,,,,
2019/2/15,11:00:00,5,���쓌,1.9,-2.7,29.5,0,0.67,5,���쓌,3.5,57,,
2019/2/15,12:00:00,5,���쓌,2.1,-0.7,43.7,0,0.71,6,�쓌,3,26,,
2019/2/15,13:00:00,4,��,1,0.6,31.2,0,0.67,5,���쓌,2.8,1,,
2019/2/15,14:00:00,5,���쓌,0.9,1.5,28.1,0,0.58,4,��,3.6,11,,
2019/2/15,15:00:00,3,���k��,2.6,-1,46.2,0,0.44,4,��,4.9,37,,
2019/2/15,16:00:00,3,���k��,1.5,-2.3,49.9,0,0.27,3,���k��,4.3,1,,
2019/2/15,17:00:00,16,�k,0.5,-6.3,58.3,0,0.06,3,���k��,2.4,27,,
2019/2/15,18:00:00,10,�쐼,1.6,-4,66.3,0,0,11,���쐼,3.9,55,,
2019/2/15,19:00:00,-8.1,#N/A,64.2,0,0,,,,,,,,
2019/2/15,20:00:00,12,��,1.2,-9.4,66.2,0,0,10,�쐼,2.1,38,,
2019/2/15,21:00:00,12,��,1.5,-9.8,69.6,0,0,13,���k��,3.4,27,,
2019/2/15,22:00:00,11,���쐼,2.4,-8.8,72,0,0,11,���쐼,4.8,37,,
2019/2/15,23:00:00,10,�쐼,1.1,-12.3,75,0,0,12,��,4.3,1,,
2019/2/15,0:00:00,10,�쐼,1.2,-12.2,80.2,0,0,8,��,3.9,11,,
2019/2/16,1:00:00,12,��,1.3,-13.4,75.6,0,0,8,��,2.5,36,,
2019/2/16,2:00:00,12,��,2.1,-12.8,83.1,0,0,12,��,4.8,54,,
2019/2/16,3:00:00,13,���k��,1.8,-12.9,83.8,0,0,12,��,5.2,22,,
2019/2/16,4:00:00,13,���k��,2.1,-14.4,84.5,0,0,12,��,5.9,6,,
2019/2/16,5:00:00,13,���k��,0.9,-12.8,88.3,0,0,12,��,3.4,3,,
2019/2/16,6:00:00,13,���k��,2.5,-13.3,89.6,0,0,13,���k��,3.5,50,,
2019/2/16,7:00:00,13,���k��,1,-11.3,90.6,0,0.01,13,���k��,3.7,10,,
2019/2/16,8:00:00,14,�k��,1.2,-9.1,88.7,0,0.07,13,���k��,2.6,41,,
2019/2/16,9:00:00,13,���k��,1.6,-7.9,78.8,0,0.14,13,���k��,3.2,34,,
2019/2/16,10:00:00,8,��,1.3,-3.7,60.2,0,0.31,14,�k��,2.3,21,,
2019/2/16,11:00:00,3,���k��,2.3,-0.3,38.3,0,0.66,3,���k��,3.4,55,,
2019/2/16,12:00:00,4,��,1.3,1,42.2,0,0.7,3,���k��,3.1,12,,
2019/2/16,13:00:00,7,��쓌,1.7,-0.4,40.4,0,0.68,6,�쓌,2.6,40,,
2019/2/16,14:00:00,8,��,1.5,0.4,48.5,0,0.6,8,��,3.1,15,,
2019/2/16,15:00:00,7,��쓌,1.3,-0.3,57.5,0,0.46,7,��쓌,2.9,21,,
2019/2/16,16:00:00,7,��쓌,1.7,-0.9,61.3,0,0.26,8,��,2.5,58,,
2019/2/16,17:00:00,-2.4,#N/A,69.6,0,0.05,,,,,,,,
2019/2/16,18:00:00,14,�k��,0.6,-4.2,75.2,0,0,3,���k��,3.4,20,,
2019/2/16,19:00:00,-4.9,#N/A,85,0,0,,,,,,,,